Flag for Canada Weather past 2 weeks in Sarnia, Ontario, Canada

Now
27 °F

Overcast.


Feels Like: 15 °F
Forecast: 12 / 26 °F
Wind: 15 mph from North

Location: Sarnia Airport

Current Time: Feb 1, 2015 at 4:02:41 AM

Latest Report: Feb 1, 2015 at 3:00 AM


Visibility: 9 mi

Pressure: 30.23 "Hg

Humidity: 80%

Dew point: 21 °F

Location of SarniaLocation

Historic Weather in Sarnia — Graph

°F

Sarnia temperature yesterday

Maximum temperature yesterday: 30 °F (at 11:00 PM)
Minimum temperature yesterday: 7 °F (at 3:00 AM)
Average temperature yesterday: 19 °F

Past Weeks' High & Low Weather Summary

 TemperatureHumidityPressure
High39 °F (Jan 17, 9:00 PM)100% (Jan 29, 5:00 PM)30.47 "Hg (Jan 29, 5:00 PM)
Low5 °F (Jan 28, 5:00 AM)51% (Jan 29, 9:00 AM)29.53 "Hg (Jan 24, 3:00 PM)
Average23 °F79%30.04 "Hg
* Reported Jan 17 3:00 AM — Feb 1 3:00 AM, Sarnia, Weather by CustomWeather, © 2014

Note: Actual official high and low records may vary slightly from our data, if they occured in-between our weather recording intervals... More about our weather records

Advertising

Sarnia weather history for previous 24 hours

 ConditionsComfort  
Time TempWeatherWind HumidityBarometerVisibility
3:00 AM
Feb 1
27 °FOvercast.15 mph80%30.23 "Hg9 mi
2:00 AM28 °FOvercast.14 mph74%30.21 "Hg9 mi
1:00 AM28 °FOvercast.14 mph80%30.21 "Hg9 mi
12:00 AM28 °FOvercast.14 mph86%30.21 "Hg7 mi
11:00 PM
Jan 31
30 °FOvercast.5 mph75%30.20 "Hg9 mi
10:00 PM28 °FOvercast.3 mph80%30.20 "Hg9 mi
9:00 PM28 °FOvercast.5 mph80%30.20 "Hg9 mi
8:00 PM27 °FOvercast.2 mph86%30.21 "Hg9 mi
7:00 PM27 °FOvercast.5 mph80%30.22 "Hg9 mi
6:00 PM27 °FOvercast.5 mph80%30.21 "Hg9 mi
5:00 PM27 °FOvercast.7 mph80%30.21 "Hg9 mi
4:00 PM27 °FOvercast.9 mph74%30.20 "Hg9 mi
3:00 PM27 °FOvercast.9 mph74%30.21 "Hg9 mi
2:00 PM27 °FScattered clouds.13 mph74%30.22 "Hg9 mi
1:00 PM27 °FPartly sunny.12 mph69%30.23 "Hg9 mi
12:00 PM23 °FPartly sunny.10 mph74%30.27 "Hg9 mi
11:00 AM21 °FOvercast.13 mph74%30.29 "Hg9 mi
10:00 AM19 °FOvercast.10 mph73%30.30 "Hg9 mi
9:00 AM16 °FOvercast.9 mph79%30.31 "Hg9 mi
8:00 AM14 °FMostly cloudy.8 mph79%30.32 "Hg9 mi
7:00 AM12 °FOvercast.7 mph79%30.33 "Hg9 mi
6:00 AM9 °FMostly cloudy.7 mph78%30.34 "Hg9 mi
5:00 AM7 °FClear.7 mph72%30.35 "Hg9 mi
4:00 AM7 °FClear.7 mph66%30.37 "Hg9 mi
Weather by CustomWeather, © 2014

See weather overviewHow to use our weather pages